Startseite
Über Mich
AHP4
Galerie
Sehschlangen
Tourenbuch
Bookmarks
Elektronik
Bewertung
Geschichten
[Tagesmessung] [Jahreswerte] [Information]

Messwerte vom 20.05.2022

Die letzten Messwerte von 23:58:45 Uhr:
KategorieMesswert
Temperatur [°C]15
Luftdruck [mBar]996
Sonneneinstrahlung0
Wind [km/h]2 aus Ost
Niederschlag [l/m²]0
rel.Luftfeucht.92.5%
CO2 [ppm]406

Diagramme
Messwerte vom 20.05.2022
Tagesaggregation
KategorieMinimumMaximumSchnittSumme
Temperatur [°C]142919.0542
Luftdruck [mBar]99410061001.3000
Sonneneinstrahlung246126.6375
Wind [km/h]20
rF [%]35.696.680.93
Niederschlag [l/m²]4.12
CO2 [ppm]396943568.5
Einordnung alsVegetationstag
Sommertag

Messungen an benachbarten Tagen: Zur Jahresaggregation 2022
Tabelle aller Messwerte
UhrzeitTemperatur [°C]Luftdruck [mBar]SonneWind [km/h]RichtungRegen [l/m²]rF [%]CO2 [ppm]
00:01:49 16 1003 0 0 SW 0 96.6 823
00:04:50 16 1002 0 0 SW 0 96.6 826
00:07:48 16 1002 0 1 SO 0 96.6 829
00:10:49 16 1002 0 3 SW 0 96.6 835
00:13:47 16 1002 0 2 SW 0 96.6 837
00:16:48 16 1003 0 6 SO 0 96.6 852
00:19:48 16 1002 0 0 SW 0 96.6 852
00:22:48 16 1003 0 2 W 0 96.6 861
00:25:50 16 1003 0 0 SW 0 96.6 860
00:28:47 16 1003 0 0 S 0 96.6 864
00:31:47 16 1003 0 5 O 0 96.6 862
00:34:48 16 1003 0 2 SO 0 96.6 862
00:37:48 16 1003 0 1 SW 0 96.6 862
00:40:49 16 1003 0 7 SW 0 96.6 870
00:43:49 16 1003 0 2 SO 0 96.6 872
00:46:47 16 1003 0 3 S 0 96.6 867
00:49:47 16 1003 0 1 SO 0 96.6 869
00:52:45 16 1003 0 1 S 0 96.6 872
00:55:46 16 1003 0 0 S 0 96.6 873
00:58:49 16 1003 0 2 SO 0 96.6 871
01:01:48 15 1003 0 2 S 0 96.6 872
01:04:50 15 1003 0 0 SW 0 96.6 879
01:07:48 15 1003 0 2 O 0 96.6 881
01:10:48 15 1003 0 2 SO 0 96.6 882
01:13:46 15 1003 0 1 SW 0 96.6 884
01:16:44 15 1004 0 0 S 0 96.6 875
01:19:48 15 1003 0 3 W 0 96.6 887
01:22:48 15 1003 0 1 S 0 96.6 886
01:25:48 15 1003 0 3 SO 0 96.6 885
01:28:47 15 1003 0 0 W 0 96.6 881
01:31:47 15 1004 0 2 SW 0 96.6 886
01:34:50 15 1003 0 1 SW 0 96.6 894
01:37:47 15 1004 0 3 SO 0 96.6 898
01:40:48 15 1004 0 0 SO 0 96.6 902
01:43:49 15 1004 0 1 NW 0 96.6 897
01:46:47 15 1004 0 2 W 0 96.6 890
01:49:48 15 1005 0 1 W 0 96.6 895
01:52:49 15 1003 0 1 SW 0 96.6 888
01:55:49 15 1004 0 0 SO 0 96.6 890
01:58:47 15 1003 0 0 N 0 96.6 890
02:01:46 15 1004 0 1 O 0 96.6 875
02:04:48 15 1004 0 0 SO 0 96.6 884
02:07:47 15 1003 0 0 SO 0 96.6 885
02:10:47 15 1004 0 0 S 0 96.6 887
02:13:48 15 1004 0 0 NW 0 96.6 889
02:16:48 15 1005 0 0 S 0 96.6 902
02:19:47 15 1004 0 0 SO 0 96.6 887
02:22:50 15 1004 0 0 S 0 96.6 890
02:25:47 15 1005 0 0 S 0 96.6 885
02:28:49 15 1004 0 2 SW 0 96.6 887
02:31:47 15 1004 0 3 SO 0 96.6 887
02:34:48 15 1004 0 2 NW 0 96.6 893
02:37:48 15 1004 0 1 NW 0 96.6 890
02:40:46 15 1005 0 0 W 0 96.6 892
02:43:47 15 1004 0 0 N 0 96.6 891
02:46:49 16 1004 0 0 NW 0 96.6 893
02:49:49 16 1005 0 1 S 0 96.6 897
02:52:48 16 1004 0 0 SO 0 96.6 896
02:55:47 16 1005 0 0 S 0 96.6 887
02:58:48 16 1003 0 2 S 0 96.6 882
03:01:48 16 1004 0 0 NW 0 96.6 881
03:04:47 16 1004 0 0 S 0 96.6 890
03:07:48 16 1004 0 0 SO 0 96.6 894
03:10:45 16 1004 0 0 S 0 96.6 898
03:13:48 16 1005 0 0 SO 0 96.6 899
03:16:46 16 1004 0 0 O 0 96.6 902
03:19:47 16 1004 0 0 SW 0 96.6 905
03:22:47 16 1004 0 0 SW 0 96.6 900
03:25:48 16 1005 0 0 SO 0 96.6 896
03:28:47 16 1003 0 0 S 0 96.6 902
03:31:49 16 1003 0 0 NW 0 96.6 908
03:34:49 16 1004 0 0 NW 0 96.6 906
03:37:49 16 1004 0 0 NW 0 96.6 895
03:40:47 16 1004 0 0 NW 0 96.6 896
03:43:47 15 1004 0 0 SO 0 96.6 894
03:46:46 15 1004 0 0 NO 0 96.6 904
03:49:48 15 1005 0 0 W 0 96.6 914
03:52:51 15 1004 0 0 SO 0 96.6 912
03:55:45 15 1004 0 0 W 0 96.6 897
03:58:47 15 1005 0 0 SO 0 96.6 895
04:01:50 15 1005 0 0 SO 0 96.6 897
04:04:48 15 1004 0 0 SW 0 96.6 897
04:07:47 15 1004 0 0 SW 0 96.6 902
04:10:47 15 1004 0 0 S 0 96.6 902
04:13:48 15 1005 0 0 S 0 96.6 899
04:16:45 15 1004 0 0 S 0 96.6 908
04:19:48 15 1005 0 0 S 0 96.6 922
04:22:46 15 1004 0 0 S 0 96.6 931
04:25:45 15 1005 0 0 S 0 96.6 912
04:28:48 15 1004 0 0 S 0 96.6 896
04:31:47 15 1004 0 0 S 0 96.6 890
04:34:48 15 1005 0 0 S 0 96.6 890
04:37:47 15 1005 0 0 S 0 96.6 894
04:40:46 15 1004 0 1 SO 0 96.6 890
04:43:46 15 1004 0 0 S 0 96.6 893
04:46:47 15 1004 0 0 S 0 96.6 896
04:49:47 15 1004 3 0 S 0 96.6 902
04:52:47 15 1004 6 0 SO 0 96.6 906
04:55:48 15 1005 8 0 SO 0 96.6 901
04:58:49 15 1005 10 0 N 0 96.6 908
05:01:48 15 1004 19 1 SW 0 96.6 902
05:04:47 15 1005 24 1 W 0 96.6 917
05:07:48 15 1004 32 0 W 0 96.6 912
05:10:47 15 1005 42 5 W 0 96.6 917
05:13:47 15 1004 47 1 W 0 96.6 919
05:16:49 15 1004 48 1 W 0 96.6 918
05:19:46 15 1005 58 0 NW 0 96.6 915
05:22:48 15 1005 68 0 SW 0 96.6 917
05:25:48 15 1005 81 2 NW 0 96.6 905
05:28:50 15 1004 85 1 NW 0 96.6 901
05:31:48 15 1004 81 0 S 0 96.6 899
05:34:49 15 1005 95 0 N 0 96.6 916
05:37:47 15 1005 103 2 NO 0 96.6 919
05:40:50 15 1005 108 0 SO 0 96.6 908
05:43:49 15 1005 119 0 NW 0 96.6 905
05:46:48 15 1004 112 0 S 0 96.6 909
05:49:49 15 1005 116 0 S 0 96.6 906
05:52:49 15 1005 119 1 NW 0 96.6 899
05:55:50 15 1005 133 0 SO 0 96.6 903
05:58:50 15 1005 138 0 SW 0 96.6 915
06:01:48 15 1005 143 1 W 0 96.6 913
06:04:51 15 1005 155 1 SO 0 96.6 925
06:07:47 15 1004 153 0 S 0 96.6 930
06:10:48 15 1005 160 0 S 0 96.6 934
06:13:48 15 1005 155 0 N 0 96.6 943
06:16:50 15 1005 157 2 NW 0 96.6 928
06:19:47 15 1005 160 4 S 0 96.6 933
06:22:50 15 1005 171 0 SO 0 96.6 932
06:25:47 15 1005 177 1 SO 0 96.6 934
06:28:48 15 1005 178 0 SO 0 96.6 929
06:31:50 15 1005 165 0 SW 0 96.6 919
06:34:46 15 1006 181 0 S 0 96.6 899
06:37:49 15 1005 185 0 SO 0 96.6 899
06:40:47 15 1006 186 1 S 0 96.6 901
06:43:49 15 1005 188 0 SO 0 96.6 902
06:46:47 15 1005 183 0 S 0 96.6 898
06:49:47 16 1005 155 0 N 0 96.6 659
06:52:48 16 1006 165 0 S 0 96.6 536
06:55:50 16 1005 161 0 SW 0 96.6 497
06:58:50 16 1005 159 0 SW 0 96.6 498
07:01:47 16 1006 169 0 W 0 96.6 489
07:04:48 17 1006 170 0 O 0 96.4 480
07:07:48 17 1006 167 0 SO 0 95.6 477
07:10:47 16 1006 199 2 O 0 94.9 483
07:13:49 16 1006 198 0 SO 0 94.7 483
07:16:51 16 1006 194 3 S 0 94.8 480
07:19:49 16 1006 195 1 SO 0 94.8 472
07:22:49 16 1006 197 0 SW 0 95 462
07:25:49 16 1006 194 0 W 0 95.1 460
07:28:47 16 1006 197 0 S 0 95.1 462
07:31:48 16 1005 197 1 W 0 95 492
07:34:46 16 1005 199 0 W 0 94.8 497
07:37:52 16 1006 198 2 W 0 94.3 507
07:40:50 17 1006 203 1 NW 0 95.9 507
07:43:48 18 1005 199 4 SO 0 94.1 483
07:46:51 19 1005 198 0 SW 0 89.6 463
07:49:51 19 1006 194 0 S 0 86.6 451
07:52:48 19 1006 197 1 SW 0 85.9 454
07:55:49 19 1006 195 0 NW 0 84.4 451
07:58:47 18 1006 198 1 S 0 85.3 456
08:01:49 18 1005 198 3 SW 0 86.4 466
08:04:50 18 1006 201 0 SW 0 86.8 471
08:07:49 17 1006 202 1 S 0 87.7 468
08:10:50 17 1006 207 2 NW 0 88.1 471
08:13:49 17 1005 201 3 SW 0 88.5 478
08:16:49 17 1005 202 1 W 0 88.1 474
08:19:47 17 1006 199 0 S 0 87.9 486
08:22:49 17 1006 201 2 SO 0 87.8 480
08:25:48 17 1005 203 5 SO 0 88 471
08:28:51 17 1006 203 2 NW 0 88.2 472
08:31:47 17 1006 203 1 S 0 88.3 474
08:34:48 17 1006 201 2 NW 0 87.8 480
08:37:48 17 1006 203 1 NW 0 88.5 480
08:40:48 17 1005 204 4 W 0 87.7 483
08:43:48 17 1006 205 1 S 0 87.3 478
08:46:47 17 1005 204 4 S 0 87.1 468
08:49:50 17 1006 201 0 NW 0 86.7 465
08:52:48 17 1006 209 0 W 0 86.8 471
08:55:47 17 1006 211 1 W 0 87.2 475
08:58:51 17 1006 206 1 S 0 87.4 474
09:01:51 17 1006 208 1 W 0 86.5 471
09:04:49 17 1006 210 2 W 0 86.3 471
09:07:50 18 1005 210 3 NW 0 86.4 472
09:10:49 18 1006 210 0 NW 0 86.1 472
09:13:49 18 1006 208 0 SO 0 86 469
09:16:47 18 1006 207 1 W 0 85.5 468
09:19:48 18 1006 209 1 S 0 85.5 463
09:22:49 18 1005 208 0 SO 0 85.7 465
09:25:51 18 1005 207 3 NO 0 85.3 463
09:28:50 18 1006 210 2 SW 0 86.5 469
09:31:49 18 1006 207 1 W 0 86 468
09:34:50 18 1006 202 3 NW 0 84.8 466
09:37:49 18 1006 208 1 W 0 83.4 466
09:40:49 18 1006 210 2 N 0 84.1 471
09:43:49 18 1005 210 2 NW 0 84 468
09:46:49 18 1006 211 1 SO 0 84.2 469
09:49:48 18 1006 216 0 S 0 84.2 468
09:52:49 18 1006 207 7 W 0 83.7 474
09:55:48 18 1005 208 2 W 0 83.3 474
09:58:48 18 1006 211 2 S 0 82.8 478
10:01:49 18 1006 209 1 SW 0 83.3 477
10:04:47 18 1005 207 3 O 0 84 474
10:07:49 18 1006 203 3 NW 0 81.6 465
10:10:47 18 1006 205 0 W 0 81.7 466
10:13:50 18 1005 204 0 SW 0 83.6 475
10:16:48 18 1006 203 3 NO 0 77 474
10:19:47 18 1005 204 3 W 0 79 475
10:22:48 18 1005 205 1 NW 0 81.1 463
10:25:50 18 1006 206 2 SW 0 82.2 466
10:28:53 18 1006 206 3 NW 0 82.2 474
10:31:51 18 1005 205 5 NW 0 79 480
10:34:47 18 1006 206 5 N 0 77.5 472
10:37:49 18 1005 207 0 W 0 76.9 477
10:40:49 18 1005 209 5 NW 0 79.9 472
10:43:48 18 1005 206 5 NW 0 74.6 466
10:46:48 18 1005 207 2 S 0 76.9 471
10:49:48 18 1006 209 0 SW 0 77.5 475
10:52:49 18 1005 209 5 W 0 77.9 480
10:55:30 17 1004 210 3 W 0 67.6 472
10:58:49 19 1005 209 2 NW 0 74.3 474
11:01:46 19 1005 208 0 N 0 73.5 474
11:04:49 19 1005 206 1 W 0 73.4 480
11:07:48 19 1004 206 1 NW 0 73.6 472
11:10:48 19 1005 206 6 NW 0 74.1 474
11:13:50 19 1004 207 7 NW 0 71.2 466
11:16:46 19 1005 207 1 S 0 70.9 468
11:19:49 19 1004 207 8 SW 0 70.8 465
11:22:48 19 1005 208 3 S 0 69.5 463
11:25:47 20 1005 209 2 O 0 69.7 469
11:28:51 20 1005 209 2 SW 0 66.8 468
11:31:49 20 1004 209 2 S 0 67.5 468
11:34:48 20 1005 210 4 NW 0 67.1 471
11:37:50 20 1004 210 4 SW 0 66 477
11:40:50 20 1004 209 3 SW 0 65.8 480
11:43:50 20 1004 210 2 SW 0 63.6 472
11:46:48 21 1004 210 1 SW 0 62.4 474
11:49:50 21 1004 210 4 SW 0 61.9 469
11:52:48 21 1005 212 2 S 0 63.1 468
11:55:47 21 1004 211 4 SW 0 62.5 469
11:58:50 22 1005 213 2 NW 0 59.4 474
12:01:51 22 1004 214 2 SW 0 58.6 475
12:04:48 22 1004 213 3 W 0 58.5 481
12:07:48 22 1004 214 3 NW 0 58.4 475
12:10:49 23 1003 213 4 SW 0 56.1 468
12:13:48 23 1004 214 3 S 0 54.8 467
12:16:48 24 1004 215 7 S 0 54 471
12:19:48 24 1003 214 2 O 0 53.8 474
12:22:30 22 1004 214 3 S 0 46.8 474
12:25:48 24 1003 214 4 S 0 53.6 460
12:28:46 25 1003 215 0 W 0 53.4 465
12:31:48 25 1003 215 5 S 0 48.9 465
12:34:49 25 1004 216 3 NW 0 50 467
12:37:48 25 1003 217 3 S 0 50.3 468
12:40:49 25 1002 218 4 W 0 50.6 467
12:43:48 25 1003 219 3 S 0 51.1 468
12:46:48 25 1002 219 13 S 0 50.4 463
12:49:49 26 1003 219 5 NW 0 47.9 456
12:52:47 25 1003 220 2 S 0 49.3 459
12:55:50 26 1002 221 2 S 0 48.7 465
12:58:50 26 1003 222 2 SO 0 47.5 468
13:01:49 26 1003 224 3 SO 0 47.2 459
13:04:47 27 1002 225 1 S 0 45.9 459
13:07:49 27 1003 227 2 SO 0 44.3 468
13:10:46 27 1003 229 3 W 0 43.7 475
13:13:47 26 1003 229 1 SW 0 44 474
13:16:48 25 1002 229 0 SO 0 45.1 463
13:19:50 25 1002 230 1 SO 0 48.9 463
13:22:49 26 1002 230 0 S 0 50.5 466
13:25:47 26 1003 231 0 W 0 47.8 471
13:28:48 26 1002 231 3 NW 0 47.7 471
13:31:47 26 1002 230 1 S 0 47.7 462
13:34:48 26 1002 229 2 SW 0 45.5 465
13:37:50 25 1002 228 5 S 0 47.2 466
13:40:48 25 1002 229 2 S 0 49 466
13:43:48 26 1002 229 1 SO 0 49.8 468
13:46:49 26 1002 230 4 S 0 49.2 465
13:49:48 27 1002 232 3 S 0 48.5 460
13:52:50 28 1002 234 1 SW 0 45.6 463
13:55:47 28 1002 235 0 SW 0 45.1 462
13:58:49 28 1002 234 2 S 0 38.3 457
14:01:50 28 1002 233 3 SO 0 39 454
14:04:48 28 1002 231 2 SW 0 40.2 454
14:07:47 27 1002 231 7 W 0 39.4 456
14:10:49 26 1002 236 0 SO 0 43.4 463
14:13:47 26 1002 238 4 SW 0 44.5 463
14:16:50 27 1002 238 1 O 0 45.2 459
14:19:47 28 1002 239 4 NW 0 44.2 462
14:22:50 28 1002 239 2 W 0 40.9 465
14:25:48 28 1002 239 4 S 0 40 465
14:28:50 28 1002 239 2 SW 0 40.6 463
14:31:47 28 1002 236 1 S 0 40.4 459
14:34:48 28 1002 237 1 O 0 41.3 459
14:37:48 28 1002 240 2 SO 0 38.4 459
14:40:51 28 1002 241 8 W 0 37.9 460
14:43:48 27 1002 241 1 S 0 38.5 460
14:46:48 28 1002 239 6 S 0 35.6 455
14:49:50 27 1002 237 1 W 0 35.8 459
14:52:47 27 1002 242 3 N 0 36.8 459
14:55:50 27 1001 243 0 NO 0 38 457
14:58:49 27 1002 244 4 S 0 39.1 459
15:01:48 28 1001 244 5 S 0 38.7 462
15:04:48 28 1001 245 6 S 0 36.3 457
15:07:48 29 1001 236 5 S 0 36.4 465
15:10:51 29 1001 240 1 SW 0 37.6 465
15:13:47 29 1001 225 1 W 0 37.5 456
15:16:50 28 1000 225 2 N 0 39.8 454
15:19:51 27 1000 235 2 NW 0 41.4 451
15:22:50 27 1001 245 0 NW 0 41.6 453
15:25:47 28 1000 245 4 SO 0 41 460
15:28:48 27 1000 244 0 S 0 41.1 457
15:31:50 28 1000 237 3 NW 0 42.5 459
15:34:49 28 1000 225 0 SW 0 42.2 456
15:37:48 27 1000 217 0 SW 0 40.2 448
15:40:47 27 999 219 1 S 0 40.3 453
15:43:46 27 999 226 0 S 0 41.2 454
15:46:48 26 999 232 1 SO 0 42.4 422
15:49:48 27 1000 240 4 S 0 43.3 419
15:52:47 27 999 239 1 NO 0 44 421
15:55:49 27 999 246 1 SO 0 42.4 422
15:58:44 28 999 244 0 O 0 43.2 413
16:01:47 27 999 245 9 N 0 41.2 405
16:04:48 26 999 239 8 NW 0 41.1 413
16:07:32 26 999 238 4 NO 0 40 412
16:10:48 25 999 235 3 SO 0 47.2 410
16:13:49 26 999 238 3 S 0 48.5 407
16:16:49 27 999 240 8 SO 0 48.4 404
16:19:48 27 999 231 8 O 0 47.4 407
16:22:48 27 999 224 3 SO 0 46.7 406
16:25:48 27 998 217 3 NO 0 46.6 407
16:28:54 26 999 215 6 SO 0 47.3 407
16:31:45 26 999 214 4 S 0 48.4 407
16:34:51 25 998 202 8 SO 0 49.5 416
16:37:50 25 998 204 13 SO 0 52.3 407
16:40:47 25 998 204 7 S 0 52.4 410
16:43:48 24 998 206 3 SO 0 53.6 407
16:46:49 24 998 210 7 O 0 55.5 407
16:49:49 24 998 208 12 O 0 56.3 407
16:52:51 24 998 209 8 SO 0 57.1 410
16:55:47 24 998 199 4 S 0 57.9 413
16:58:49 24 998 194 0 SO 0 58.8 410
17:01:49 24 998 184 3 S 0 59.5 404
17:04:46 24 998 180 5 S 0 59.9 409
17:07:50 23 998 194 0 SO 0 60.8 407
17:10:46 23 998 196 3 SO 0 61.5 407
17:13:50 23 998 194 1 SO 0 62.1 401
17:16:47 23 998 198 2 O 0 62.1 407
17:19:50 23 998 196 0 NW 0 62.5 407
17:22:49 23 998 189 1 NO 0 62.7 410
17:25:49 23 998 178 0 NO 0 63 407
17:28:48 23 998 165 2 O 0 63.5 407
17:31:46 23 998 161 3 O 0 63.8 404
17:34:49 23 998 189 0 O 0 63.9 405
17:37:48 22 997 207 3 NW 0 64.3 406
17:40:48 22 998 209 0 SO 0 65.1 406
17:43:49 23 998 202 0 SO 0 65.5 406
17:46:47 23 997 202 0 O 0 65.6 410
17:49:47 23 997 198 2 O 0 65.1 412
17:52:48 23 997 196 0 O 0 64.9 410
17:55:47 23 997 182 3 NO 0 65.4 401
17:58:49 22 997 169 1 SO 0 65.4 404
18:01:50 22 998 151 0 SO 0 66.3 407
18:04:48 22 997 138 0 O 0 66.7 404
18:07:48 22 998 109 0 NO 0 68.5 404
18:10:50 21 996 89 0 SO 0 70.1 408
18:13:46 21 997 106 1 NO 0 71.4 404
18:16:49 21 996 106 1 N 0 73.1 404
18:19:49 20 996 93 0 NO 0.2575 74.6 407
18:22:46 20 997 67 0 NO 0.515 76.1 408
18:25:50 20 997 69 0 SO 0 85 408
18:28:47 20 996 89 0 NW 0 85 409
18:31:49 19 998 84 0 NW 0.2575 84.8 407
18:34:51 19 996 89 0 NW 0.2575 86.4 402
18:37:49 18 996 100 0 NW 0.2575 87 404
18:40:48 18 996 97 0 O 0.515 92.7 407
18:43:47 18 997 97 1 NO 0.2575 92.8 404
18:46:48 18 996 93 0 NO 0.2575 93 407
18:49:47 18 996 91 0 NO 0.2575 93 403
18:52:48 18 996 93 0 O 0.2575 94.2 406
18:55:49 18 997 102 0 O 0.2575 95 404
18:58:47 18 996 112 0 O 0.2575 96 404
19:01:47 18 996 136 0 O 0.2575 96.6 408
19:04:47 18 996 150 0 S 0 96.6 404
19:07:49 18 996 137 0 SO 0 96.6 405
19:10:48 18 995 138 1 SO 0 96.6 407
19:13:49 18 996 177 0 SO 0.2575 96.6 408
19:16:47 18 996 185 0 NO 0 96.6 407
19:19:51 18 996 189 0 SO 0 96.6 407
19:22:48 18 995 180 0 SO 0 96.6 404
19:25:49 18 995 181 1 O 0 96.6 407
19:28:48 18 996 181 0 O 0 96.6 411
19:31:50 18 995 188 0 SO 0 96.6 409
19:34:46 18 995 193 0 O 0 96.6 407
19:37:47 18 995 186 0 O 0 96.6 404
19:40:47 18 995 185 2 0 96.6 405
19:43:47 19 995 184 0 O 0 96.6 404
19:46:46 19 995 179 0 O 0 96.6 406
19:49:48 18 995 179 0 NO 0 96.6 407
19:52:47 18 995 179 0 NO 0 96.6 404
19:55:47 18 995 178 0 O 0 96.6 406
19:58:47 18 995 171 0 O 0 96.6 407
20:01:50 18 995 166 1 NW 0 96.6 407
20:04:49 18 995 161 1 W 0 96.6 407
20:07:49 18 995 160 1 O 0 96.6 410
20:10:48 18 995 154 2 N 0 96.6 407
20:13:49 18 995 145 5 W 0 96.6 404
20:16:48 18 995 136 5 N 0 96.6 407
20:19:48 18 995 135 7 NW 0 96.6 405
20:22:51 18 995 141 3 N 0 96.6 407
20:25:49 18 995 160 6 NW 0 96.6 407
20:28:48 18 995 162 3 W 0 96.6 404
20:31:48 18 995 166 5 N 0 96.6 403
20:34:49 18 995 169 0 O 0 96.6 404
20:37:49 18 995 158 0 SO 0 96.6 404
20:40:48 18 995 138 4 N 0 96.6 404
20:43:49 18 995 141 2 NW 0 96.6 406
20:46:47 18 995 114 1 N 0 96.6 406
20:49:47 18 995 123 2 N 0 96.6 409
20:52:48 18 995 129 0 NW 0 96.6 412
20:55:47 18 995 113 3 NW 0 96.6 410
20:58:47 18 995 109 0 S 0 96.6 408
21:01:48 17 995 107 1 NO 0 96.6 409
21:04:46 17 995 86 2 0 96.6 407
21:07:47 17 995 67 1 NO 0 96.6 409
21:10:49 17 994 62 0 NW 0 96.6 407
21:13:48 17 995 46 1 SO 0 96.6 407
21:16:46 17 994 37 4 O 0 96.6 404
21:19:48 17 995 31 3 NO 0 96.6 407
21:22:49 17 994 24 0 NO 0 96.6 403
21:25:47 17 995 20 0 N 0 96.6 407
21:28:46 17 995 12 0 O 0 96.6 407
21:31:46 17 994 8 1 O 0 96.6 406
21:34:49 17 995 4 1 SO 0 96.6 407
21:37:48 17 995 0 4 S 0 96.6 407
21:40:47 17 994 0 0 SO 0 96.6 406
21:43:47 17 995 0 3 SO 0 96.6 407
21:46:46 17 995 0 0 SO 0 96.6 407
21:49:49 17 994 0 5 SO 0 96.6 409
21:52:46 17 995 0 1 SW 0 96.6 410
21:55:49 17 995 0 0 SO 0 96.6 407
21:58:45 17 995 0 0 SO 0 96.6 410
22:01:46 17 995 0 1 S 0 96.6 409
22:04:45 17 995 0 1 S 0 96.6 410
22:07:49 17 995 0 5 SO 0 96.6 410
22:10:48 18 995 0 8 S 0 96.6 406
22:13:47 18 995 0 5 S 0 96.6 404
22:16:47 18 995 0 6 W 0 96.6 407
22:19:48 18 995 0 3 SO 0 96.6 404
22:22:46 18 995 0 4 S 0 96.6 406
22:25:48 18 995 0 3 SW 0 96.6 407
22:28:47 18 995 0 2 SO 0 96.6 407
22:31:46 18 995 0 5 S 0 96.6 410
22:34:49 18 995 0 9 W 0 96.6 402
22:37:47 18 995 0 3 SO 0 96.6 406
22:40:48 18 995 0 9 S 0 96.6 406
22:43:48 18 995 0 7 SO 0 96.6 407
22:46:50 18 995 0 19 SW 0 96.5 396
22:49:48 18 994 0 11 O 0 96.4 409
22:52:47 18 995 0 10 SO 0 96.5 409
22:55:48 18 995 0 20 NW 0 96.5 406
22:58:48 17 995 0 7 W 0 94.6 404
23:01:46 17 995 0 11 S 0 94.6 406
23:04:49 17 995 0 3 SO 0 94.2 406
23:07:45 17 995 0 6 S 0 94.4 404
23:10:48 17 995 0 8 N 0 94 406
23:13:46 17 995 0 5 NW 0 93.7 407
23:16:46 17 995 0 7 W 0 92.9 406
23:19:47 16 995 0 4 SW 0 92.9 407
23:22:46 16 995 0 5 NW 0 91.9 409
23:25:47 16 995 0 6 NW 0 91.7 404
23:28:48 16 995 0 3 NO 0 92.5 413
23:31:48 16 995 0 3 NW 0 93.7 410
23:34:45 16 995 0 4 O 0 94 407
23:37:45 16 995 0 5 W 0 94.5 407
23:40:47 15 995 0 5 SW 0 93.9 406
23:43:45 15 995 0 3 W 0 93.7 407
23:46:47 15 996 0 8 W 0 90.8 404
23:49:30 14 996 0 4 NW 0 83.8 407
23:52:47 15 997 0 12 NW 0 92.4 406
23:55:48 15 996 0 6 SO 0 91.8 407
23:58:45 15 996 0 2 O 0 92.5 406

Letzte Änderung : 22-Jul-2022
Copyright Jens Köhler, Wolfsburg, Obere Dorfstraße 10d